Meteo Giornale » Osservazioni meteo Spagna » Madrid-Torrejon
ore: 20:30 - Osservazioni Meteo Madrid-Torrejon
Lat. 40° 29' N Lon. 3° 27' W Alt. 607 metri s.l.m.
30 °C
Sereno
Temp. 24 Ore
15 °C
33 °C
Ovest/Nord-Ovest
9.3 Km/h
Dew point 3 °C
Umidità 17 %
Visibilità 10 Km
Il sole sorge alle ore 07:40
Il sole tramonta alle ore 20:48
| Data e Ora | Cielo e Fenomeni | T °C | DP °C | Um. % | Pres. hPa | Vis. km | Vento km/h | |
|---|---|---|---|---|---|---|---|---|
| Oggi h: 20:30 | Sereno | 30 | 3 | 17 | 1017 | 10 | O/NO 9.3 | |
| Oggi h: 20:00 | Sereno | 32 | 4 | 17 | 1017 | 10 | O 7.4 | |
| Oggi h: 19:30 | Sereno | 33 | 5 | 17 | 1017 | 10 | O/SO 11.1 | |
| Oggi h: 19:00 | Sereno | 33 | 5 | 17 | 1017 | 10 | SO 11.1 | |
| Oggi h: 18:30 | Sereno | 33 | 5 | 17 | 1017 | 10 | SO 9.3 | |
| Oggi h: 18:00 | Sereno | 33 | 4 | 16 | 1017 | 10 | S/SO 14.8 | |
| Oggi h: 17:30 | Sereno | 33 | 5 | 17 | 1018 | 10 | S/SO 16.7 | |
| Oggi h: 17:00 | Sereno | 33 | 5 | 17 | 1018 | 10 | O/SO 11.1 | |
| Oggi h: 16:30 | Sereno | 33 | 5 | 17 | 1018 | 10 | O/SO 18.5 | |
| Oggi h: 16:00 | Sereno | 33 | 5 | 17 | 1018 | 10 | O 18.5 | |
| Oggi h: 15:30 | Sereno | 32 | 6 | 19 | 1019 | 10 | O 14.8 | |
| Oggi h: 15:00 | Sereno | 31 | 6 | 20 | 1019 | 10 | O 11.1 | |
| Oggi h: 14:30 | Sereno | 30 | 7 | 23 | 1019 | 10 | SO 11.1 | |
| Oggi h: 14:00 | Sereno | 30 | 7 | 23 | 1020 | 10 | O/SO 9.3 | |
| Oggi h: 13:30 | Sereno | 30 | 7 | 23 | 1020 | 10 | S/SO 13 | |
| Oggi h: 13:00 | Sereno | 29 | 8 | 26 | 1020 | 10 | S/SO 7.4 | |
| Oggi h: 12:30 | Sereno | 28 | 8 | 28 | 1020 | 10 | N 3.7 | |
| Oggi h: 12:00 | Sereno | 27 | 7 | 28 | 1020 | 10 | E 7.4 | |
| Oggi h: 11:30 | Sereno | 27 | 7 | 28 | 1020 | 10 | E/NE 7.4 | |
| Oggi h: 11:00 | Sereno | 26 | 6 | 27 | 1020 | 10 | NE 9.3 | |
| Oggi h: 10:30 | Sereno | 24 | 6 | 31 | 1020 | 10 | NE 9.3 | |
| Oggi h: 10:00 | Sereno | 22 | 7 | 37 | 1020 | 10 | N 5.5 | |
| Oggi h: 09:30 | Sereno | 20 | 7 | 42 | 1020 | 10 | N 3.7 | |
| Oggi h: 09:00 | Sereno | 19 | 7 | 45 | 1020 | 10 | N 3.7 | |
| Oggi h: 08:30 | Sereno | 17 | 7 | 51 | 1020 | 10 | N/NE 9.3 | |
| Oggi h: 08:00 | Sereno | 15 | 7 | 58 | 1020 | 10 | N/NE 11.1 | |
| Oggi h: 07:30 | Sereno | 16 | 8 | 58 | 1020 | 10 | N/NE 7.4 | |
| Oggi h: 07:00 | Sereno | 17 | 7 | 51 | 1019 | 10 | NE 7.4 | |
| Oggi h: 06:30 | Sereno | 17 | 8 | 55 | 1019 | 10 | NE 7.4 | |
| Oggi h: 06:00 | Sereno | 17 | 8 | 55 | 1019 | 10 | N/NE 13 | |
| Oggi h: 05:30 | Sereno | 16 | 8 | 58 | 1019 | 10 | N/NE 11.1 | |
| Oggi h: 05:00 | Sereno | 17 | 8 | 55 | 1019 | 10 | N/NE 11.1 | |
| Oggi h: 04:30 | Sereno | 18 | 8 | 51 | 1019 | 10 | N/NE 7.4 | |
| Oggi h: 04:00 | Sereno | 18 | 8 | 51 | 1019 | 10 | N/NE 11.1 | |
| Oggi h: 03:30 | Sereno | 19 | 8 | 48 | 1019 | 10 | N/NE 11.1 | |
| Oggi h: 03:00 | Sereno | 20 | 8 | 45 | 1019 | 10 | N 13 | |
| Oggi h: 02:30 | Sereno | 21 | 8 | 43 | 1019 | 10 | N 13 | |
| Oggi h: 02:00 | Sereno | 20 | 7 | 42 | 1019 | 10 | N/NE 7.4 | |
| Oggi h: 01:30 | Sereno | 21 | 7 | 40 | 1019 | 10 | N/NO 7.4 | |
| Oggi h: 01:00 | Sereno | 22 | 7 | 37 | 1019 | 10 | NE 7.4 | |
| Oggi h: 00:30 | Sereno | 22 | 7 | 37 | 1018 | 10 | N 1.8 | |
| Oggi h: 00:00 | Sereno | 24 | 7 | 33 | 1018 | 10 | N 5.5 | |
| Ieri h: 23:30 | Sereno | 24 | 7 | 33 | 1018 | 10 | N/NO 7.4 | |
| Ieri h: 23:00 | Sereno | 25 | 6 | 29 | 1018 | 10 | SO 7.4 | |
| Ieri h: 22:30 | Sereno | 26 | 5 | 25 | 1018 | 10 | SO 11.1 | |
| Ieri h: 22:00 | Sereno | 26 | 4 | 24 | 1017 | 10 | SO 11.1 | |
| Ieri h: 21:30 | Sereno | 28 | 5 | 23 | 1017 | 10 | O/SO 9.3 | |
| Ieri h: 21:00 | Sereno | 29 | 4 | 20 | 1017 | 10 | SO 14.8 | |



